Location: New York
(40.7127°N, 74.0060°W)
Time: 19:07:31
(UTC-04:00)

VELOX 1 - Pass Details

Date: 29 April 2024
Orbit: 605 x 617 km, 98.3° (Epoch: 27 May)

Event Time Altitude Azimuth Distance (km) Brightness Sun altitude
Rises 21:08:31 0° 11° (N) 2,901 ? -13.9°
Reaches altitude 10° 21:10:43 10° 9° (N) 1,991 ? -14.2°
Maximum altitude 21:15:01 73° 286° (WNW) 650 ? -14.9°
Drops below altitude 10° 21:19:18 10° 201° (SSW) 1,972 ? -15.6°
Sets 21:21:28 0° 200° (SSW) 2,871 ? -15.9°
